Location: Casilda
(33.0440°S, 61.1680°W)
Time: 18:57:51
(UTC-03:00)

ISS - Visible Passes

Search period start: 16 October 2019 00:00
Search period end: 26 October 2019 00:00
Orbit: 411 x 421 km, 51.6° (Epoch: 16 October)

Date Brightness Start Highest point End Pass type
(mag) Time Alt. Az. Time Alt. Az. Time Alt. Az.
16 Oct -1.7 04:36:10 12° SSW 04:38:51 28° SE 04:41:51 10° E visible
16 Oct -1.1 21:14:47 10° NW 21:15:14 13° NW 21:15:14 13° NW visible
17 Oct -0.7 03:50:51 17° SE 03:50:51 17° SE 03:52:32 10° ESE visible
17 Oct -3.4 05:23:50 11° WSW 05:27:01 43° NW 05:30:16 10° NNE visible
17 Oct -3.5 20:26:25 10° NNW 20:29:38 46° NE 20:31:00 28° ESE visible
18 Oct -3.5 04:39:04 60° NE 04:39:04 60° NE 04:41:55 10° NE visible
18 Oct -1.6 21:14:55 10° W 21:17:49 26° SW 21:19:25 18° S visible
19 Oct -1.4 05:27:46 11° NNW 05:27:46 11° NNW 05:27:57 10° NNW visible
19 Oct -2.7 20:25:55 10° WNW 20:29:10 47° SW 20:32:29 10° SE visible
20 Oct -0.5 21:16:26 10° SW 21:17:45 12° SSW 21:19:05 10° S visible
21 Oct -0.8 20:26:35 10° WSW 20:28:58 18° SSW 20:31:23 10° SSE visible
